STARLINK-31957, 59926

Orbit data source: Space-Track

STARLINK-31957, 59926 is a payload satellite owned by SpaceX/Seattle (US) in LEO that was launched on Sat, 01 Jun 2024 UTC via an FALCON 9 launch vehicle from the Air Force Eastern Test Range (AFETR). Payload-class satellites include a variety of spacecraft equipped with specific instruments for various scientific and technological missions. These include communications satellites like Starlink; space stations such as the ISS; scientific satellites like the Hubble; Earth observation satellites from companies like Planet Labs, Umbra, and HawkEye 360; GPS; miniature CubeSats for education and research; and military/defense satellites.

Loading next visibility...
Identifier
59926, 2024-106E
Orbit
LEO
Country
Flag of USUS
Related business
Manufacturer
SpaceX/Seattle
Mission
Operational Commercial Communications
Bus & Motor
STARLINK V2M, Unknown motor
Mass
730 kg wet, ~700 kg dry
Launch date (UTC)
2024-06-01 (2 years ago)
Launch vehicle
FALCON 9
Launch site
Air Force Eastern Test Range (AFETR)
Object type
Payload
Rocket body
Debris
Shape & HBR
Box + 2 Pan, 17.7 m
Radar Cross Section
33.884 m², Large (>1 m²)

Expand to show TLE details & history
Last TLE update: 5 hours ago

TLE from 5 hours ago
0 STARLINK-31957
1 59926U 24106E   26127.97229057 -.00007201  00000-0 -25213-3 0  9991
2 59926  43.0039 357.3601 0001159 286.3694  73.7030 15.27616881109646
Epoch: 2026-05-07T23:20Z
TLE epoch observation values (Epoch: 2026-05-07T23:20:05.905Z)
Latitude
-0.00002°
Longitude
141.52471°
Altitude
482.491 km
Speed
7.626 km/s
True Right ascension
23h 49m 26s
True Declination
0° 00' 00"
Sunlit
Object was in daylight at epoch
Visualization orbit readout
Latitude
Unknown
Longitude
Unknown
Altitude
Unknown
Speed
Unknown
Apparent Right ascension
Unknown
Apparent Declination
Unknown
Sunlit
N/A
Visualization observer readout
Local Sidereal Time
12:20:34
Azimuth
Unknown
Elevation
Unknown
Doppler factor
Unknown
Orbital elements
Apogee altitude
485.679 km
Perigee altitude
484.088 km
Semi-major axis
6,863.02 km
Eccentricity
0.00012
Inclination
43.0039°
RAAN
357.3601°
Arg. of periapsis
286.3694°
True anomaly
73.71575°
Mean anomaly
73.703°
Eccentric anomaly
73.70937°
Mean motion
3.81742 °/min
Orbital period
94.3 mins
BSTAR
-0.00025213
Loading maneuver chart data...
Computing Atmospheric mass density...
Loading historical data...
Loading historical data...
Loading historical data...
Loading historical data...
Loading historical data...
Loading historical data...
Loading historical data...

Documentation

Showing up to 5 results
|